Weather in 1-e Komissarovskoye

Russia / Omsk Oblast     54°30′16″N   72°43′29″E
temp.,
°C
wind,
m/s
gust,
m/s
humid.,
%
clouds,
%
prec.,
mm/h
press.,
hPa
HPBL,
m
23 january, sat
sat2300:00−23sw239898 0.1 102277
03:00−23wsw239891 0.1 102344
06:00−25w239991 0.1 102420
09:00−26nnw349894 0.1 1027124
12:00−26nnw349894 0.1 1028136
15:00−29nw359428 0.0 1032221
18:00−31nw349694 0.0 103359
21:00−33nw3495100 0.0 103770
24 january, sun
sun2400:00−35nw349599 0.0 103947
03:00−37nw349655 0.0 103957
06:00−35wnw249677 0.0 1039129
09:00−35wnw2295100 0.0 104173
12:00−36wnw11942 0.0 104561
15:00−31w129187 0.0 1041186
18:00−36s009751 0.0 104219
21:00−36sse339335 0.0 104528
25 january, mon
mon2500:00−33sse479367 0.0 1044148
03:00−30sse5892100 0.0 1042246
06:00−34ese349477 0.0 1044102
09:00−26sse5998100 0.6 1037294
12:00−30ese4693100 0.0 1043210
15:00−29ese4693100 0.0 1041231
18:00−20ese3598100 0.7 1033166
21:00−22ese239896 0.1 103335
26 january, tue
tue2600:00−31ese479774 0.0 1041166
03:00−31ese4797100 0.0 1041152
06:00−24sse119956 0.0 103420
09:00−20sse239899 0.0 103487
12:00−28ese5796100 0.0 1042231
15:00−26ese4697100 0.1 1041242
18:00−7ssw4896100 1.2 1028253
21:00−27ese489796 0.1 1042222
27 january, wed
wed2700:00−5wsw6129397 0.6 1026360
03:00−27se469897 0.0 1041133
06:00−24sse479899 0.1 1040227
09:00−9wsw6129399 0.0 1025310
12:00−19sse5797100 0.6 1037231
15:00−14s5896100 0.7 1034216
18:00−5w71292100 0.1 1025526
21:00−6w61193100 0.0 1025458